Hourly Weather Roundup
Issued by NWS Central Illinois

Home | Current Version | Previous Version | Text Only | Print | Product List | Glossary On
Versions: 1 2 3 4 5 6 7 8 9 10 11 12 13 14 15 16 17 18 19 20 21 22 23 24 25 26 27 28 29 30 31 32 33 34 35 36 37 38 39 40 41 42 43 44 45 46 47 48 49 50
000
NZUS43 KILX 302310
HWRILX

AREA WEATHER ROUNDUP
NATIONAL WEATHER SERVICE, LINCOLN IL
600 PM CDT SUN AUG 30 2015


CITY           SKY/WX    TMP DP  RH WIND       PRES   REMARKS
BLOOMINGTON    PTSUNNY   82  71  69 NE7       30.03S HX  86
CHAMPAIGN      PTSUNNY   84  67  56 SW5       30.01S HX  86
DANVILLE       SUNNY     82  69  63 CALM      30.00S HX  85
DECATUR        MOSUNNY   85  68  56 S5        30.00S HX  88
EFFINGHAM      CLOUDY    83  64  51 SW5       30.03S HX  85
FLORA          MOSUNNY   83  66  57 S6        30.02S HX  85
GALESBURG      MOSUNNY   78  68  72 N5        30.01S
JACKSONVILLE   SUNNY     85  72  64 CALM      29.99S HX  90
LACON          SUNNY     77  65  66 CALM      30.00F
LAWRENCEVILLE  MOSUNNY   83  69  62 S8        30.01F HX  86
LITCHFIELD     SUNNY     82  68  61 S5        30.01S HX  85
$$


CITY           SKY/WX    TMP DP  RH WIND       PRES   REMARKS
LINCOLN        MOSUNNY   84  69  58 N3        29.99S HX  88
MACOMB         SUNNY     80  69  69 NE3       30.03S HX  83
MATTOON        MOSUNNY   83  66  56 SW5       30.01S HX  85
MT CARMEL AP   MOSUNNY   82  66  57 CALM      30.01F HX  85
OLNEY-NOBLE AP PTSUNNY   81  70  69 CALM      30.02S HX  84
PARIS          SUNNY     83  68  59 CALM      30.02S HX  86
PEORIA         SUNNY     83  67  58 N5        30.01S HX  85
PONTIAC        MOSUNNY   79  70  73 NW3       30.03S HX  82
RANTOUL        MOSUNNY   85  70  60 CALM      30.01S HX  89
ROBINSON       MOSUNNY   85  64  50 S5        30.02S HX  86
SPRINGFIELD    SUNNY     86  69  56 CALM      29.99F HX  90
TAYLORVILLE    PTSUNNY   79  72  78 CALM      30.00S HX  82
$$

...REGIONAL REPORTS...


CITY           SKY/WX    TMP DP  RH WIND       PRES   REMARKS
CHICAGO O`HARE MOSUNNY   74  65  73 E5        30.02S
KANKAKEE       MOSUNNY   79  68  69 NW3       30.03S HX  82
MOLINE         SUNNY     80  65  59 CALM      30.01F HX  82
MOUNT STERLING SUNNY     83  68  60 CALM      30.00S HX  86
MOUNT VERNON   MOSUNNY   86  68  54 S5        30.02S HX  89
PITTSFIELD     SUNNY     85  70  60 CALM      30.00F HX  90
QUINCY         MOSUNNY   85  67  54 NE3       29.99F HX  87
ROCKFORD       MOSUNNY   75  62  64 CALM      30.04S
$$


CITY           SKY/WX    TMP DP  RH WIND       PRES   REMARKS
BURLINGTON     SUNNY     81  67  62 CALM      30.01S HX  83
CEDAR RAPIDS   MOSUNNY   73  67  81 CALM      30.01F
DES MOINES     MOSUNNY   78  67  68 S6        29.99F HX  80
KIRKSVILLE     SUNNY     83  67  58 S3        30.01F HX  85
OTTUMWA        MOSUNNY   78  69  73 CALM      30.00S HX  80
ST LOUIS       PTSUNNY   87  68  52 E3        29.99S HX  90
$$


CITY           SKY/WX    TMP DP  RH WIND       PRES   REMARKS
TERRE HAUTE    MOSUNNY   84  65  52 S6        30.02S HX  86
EVANSVILLE     PTSUNNY   82  68  62 SW8       30.03S HX  85
INDIANAPOLIS   PTSUNNY   81  64  56 SW10      30.02S HX  82
LAFAYETTE      SUNNY     82  66  58 SW6       30.00F HX  84
MADISON        PTSUNNY   73  62  68 SW5       30.01F
MILWAUKEE      CLOUDY    68  62  81 SE6       30.02S
$$





USA.gov is the U.S. government's official web portal to all federal, state and local government web resources and services.